Simultaneous Nadir Overpasses (SNOs) Predictions

Prediction of SNOs between LANDSAT-8 and METOP-B Satellite Orbit:

Table of predicted SNOs for the next 14.0 days since TLE Epoch: 7/21/2018
Index Date (LANDSAT-8) Time (LANDSAT-8) Lat,Lon (LANDSAT-8) SZA (LANDSAT-8 ) Date (METOP-B) Time (METOP-B) Lat,Lon (METOP-B) SZA (METOP-B ) Distance(km) Time Diff (sec)
1 07/23/2018 12:21:23 -80.69,-151.10 117.81 07/23/2018 12:20:09 -80.90,-151.74 117.72 25.46 74
2 07/23/2018 13:10:28 81.23, 24.05 63.36 07/23/2018 13:10:27 81.23, 24.13 63.37 1.54 1
3 07/23/2018 13:59:54 -81.25,-168.01 116.60 07/23/2018 14:01:06 -81.25,-167.97 116.56 0.78 72
4 07/26/2018 07:55:17 -81.23, -77.17 116.06 07/26/2018 07:54:06 -81.22, -77.28 116.11 1.98 71
5 07/26/2018 08:44:43 81.23, 90.56 63.97 07/26/2018 08:44:46 81.23, 90.43 63.95 2.30 3
6 07/26/2018 09:33:23 -81.81, -82.79 113.49 07/26/2018 09:34:28 -81.18, -79.38 113.27 89.60 65
7 07/29/2018 03:29:33 -81.23, -10.66 115.41 07/29/2018 03:28:25 -81.23, -10.58 115.43 1.31 68
8 07/29/2018 04:18:59 81.24, 157.05 64.62 07/29/2018 04:19:05 81.24, 157.09 64.63 0.82 6
9 07/31/2018 23:03:50 -81.21, 55.46 114.77 07/31/2018 23:02:46 -81.22, 55.34 114.81 2.04 64
10 07/31/2018 23:53:15 81.24,-136.49 65.30 07/31/2018 23:53:25 81.23,-136.64 65.29 2.59 10
11 08/03/2018 18:38:04 -81.24, 122.30 113.99 08/03/2018 18:37:03 -81.23, 122.40 114.00 1.77 61




NCC Satellite Simultaneous Nadir Overpasses (SNOs) Prediction Service
